Regional Weather Roundup
Issued by NWS

Home | Current Version | Previous Version | Graphics & Text | Print | Product List | Glossary On
Versions: 1 2 3 4 5 6 7 8 9 10 11 12 13 14 15 16 17 18 19 20 21 22 23 24 25 26 27 28 29 30 31 32 33 34 35 36 37 38 39 40 41 42 43 44 45 46 47 48 49 50
000
ASUS43 KOAX 121810
RWRNE

WEATHER ROUNDUP FOR NEBRASKA
NATIONAL WEATHER SERVICE OMAHA NE
100 PM CDT SAT JUL 12 2014

NOTES: SATELLITE DATA IS BEING USED TO AUGMENT CLOUD COVER ABOVE
       12000 FEET.
       "FAIR" INDICATES FEW OR NO CLOUDS BELOW 12,000 FEET WITH NO
       SIGNIFICANT WEATHER AND/OR OBSTRUCTIONS TO VISIBILITY.

  * THESE STATIONS DO NOT REPORT WEATHER SUCH AS RAIN...SNOW OR FOG.

NEZ001>004-019>022-054>056-121900-
NEBRASKA PANHANDLE

CITY           SKY/WX    TMP DP  RH WIND       PRES   REMARKS
SCOTTSBLUFF    CLOUDY    73  61  65 CALM      30.24R
6HR MIN TEMP:  61; 6HR MAX TEMP:  73;

ALLIANCE       CLOUDY    73  60  63 NE6       30.22R
6HR MIN TEMP:  61; 6HR MAX TEMP:  75;

CHADRON        PTSUNNY   78  58  49 SE8       30.18F
6HR MIN TEMP:  62; 6HR MAX TEMP:  78;

KIMBALL        CLOUDY    69  61  76 NW7       30.26S
SIDNEY         MOSUNNY   76  61  59 N8        30.24R
6HR MIN TEMP:  62; 6HR MAX TEMP:  75; 6HR PCP: TRACE;

$$

NEZ057>060-069>072-079>082-121900-
SOUTHWEST NEBRASKA

CITY           SKY/WX    TMP DP  RH WIND       PRES   REMARKS
NORTH PLATTE   PTSUNNY   77  65  66 N12       30.10S
6HR MIN TEMP:  67; 6HR MAX TEMP:  77;

IMPERIAL       PTSUNNY   78  66  66 N13       30.14S
6HR MIN TEMP:  67; 6HR MAX TEMP:  78;

LEXINGTON      CLOUDY    77  69  78 N9        30.07R
MCCOOK         MOSUNNY   82  68  62 N13       30.07R
6HR MIN TEMP:  71; 6HR MAX TEMP:  83;

OGALLALA       SUNNY     77  62  60 N12G17    30.15S
$$

NEZ005>010-023>029-035>040-094-121900-
NORTH CENTRAL NEBRASKA

CITY           SKY/WX    TMP DP  RH WIND       PRES   REMARKS
VALENTINE      CLOUDY    72  66  81 N10       30.14S
6HR MIN TEMP:  68; 6HR MAX TEMP:  73;

AINSWORTH      MOSUNNY   76  64  65 NE8       30.11S
BROKEN BOW     CLOUDY    72  67  84 N14       30.08F
6HR MIN TEMP:  69; 6HR MAX TEMP:  72;

O`NEILL        CLOUDY    71  66  83 N8        30.09S
ORD            CLOUDY    70  65  84 N12       30.05S
6HR MIN TEMP:  68; 6HR MAX TEMP:  72;

THEDFORD       PTSUNNY   79  67  66 N10       30.12F
$$

NEZ041-046>049-061>064-073>077-083>087-121900-
SOUTH CENTRAL NEBRASKA

CITY           SKY/WX    TMP DP  RH WIND       PRES   REMARKS
GRAND ISLAND   PTSUNNY   82  70  66 NW12      30.03R
6HR MIN TEMP:  72; 6HR MAX TEMP:  84;

AURORA         MOSUNNY   83  70  64 NW3       30.01S
HASTINGS       PTSUNNY   84  65  52 NW8       30.02R
6HR MIN TEMP:  70; 6HR MAX TEMP:  84;

HEBRON         SUNNY     92  67  43 SW13      29.98F HX  95
HOLDREGE       MOSUNNY   80  69  69 N13G20    30.04F
KEARNEY *      PTSUNNY   81  68  65 N14       30.05R
YORK           SUNNY     84  72  65 W6        30.01R
$$

NEZ011>018-030>034-042>045-121900-
NORTHEAST NEBRASKA

CITY           SKY/WX    TMP DP  RH WIND       PRES   REMARKS
NORFOLK        CLOUDY    72  67  84 N12       30.04S
6HR MIN TEMP:  68; 6HR MAX TEMP:  72; 6HR PCP:  0.02;

ALBION         CLOUDY    71  65  82 N9        30.06R
BLAIR          CLOUDY    82  69  65 CALM      29.98S
FREMONT        CLOUDY    82  72  71 N6        30.00R
TEKAMAH        CLOUDY    79  71  76 N17       30.00R
6HR MIN TEMP:  69; 6HR MAX TEMP:  79;

WAYNE          CLOUDY    72  69  89 N9        30.04S
$$

NEZ050>053-065>068-078-088>093-121900-
SOUTHEAST NEBRASKA

CITY           SKY/WX    TMP DP  RH WIND       PRES   REMARKS
LINCOLN        MOSUNNY   89  68  49 W9        29.98S HX  93
6HR MIN TEMP:  74; 6HR MAX TEMP:  89;

OMAHA EPPLEY   CLOUDY    85  69  58 S10       29.96F
6HR MIN TEMP:  72; 6HR MAX TEMP:  85;

BEATRICE       MOSUNNY   87  70  55 S14       29.98S HX  92
FALLS CITY     MOSUNNY   91  71  51 S7        29.98F HX  97
6HR MIN TEMP:  73; 6HR MAX TEMP:  92;

NEBRASKA CITY  MOSUNNY   86  71  60 S15       29.97F HX  91
PLATTSMOUTH    MOSUNNY   86  69  55 S9        29.98F HX  90
$$

NEZ044-045-051>053-067-121900-
OMAHA AREA

CITY           SKY/WX    TMP DP  RH WIND       PRES   REMARKS
OMAHA EPPLEY   CLOUDY    85  69  58 S10       29.96F
6HR MIN TEMP:  72; 6HR MAX TEMP:  85;

BLAIR          CLOUDY    82  69  65 CALM      29.98S
FREMONT        CLOUDY    82  72  71 N6        30.00R
MILLARD        PTSUNNY   86  71  61 S7        29.96F HX  92
PLATTSMOUTH    MOSUNNY   86  69  55 S9        29.98F HX  90
WAHOO          FAIR      86  70  59 W5        29.98R HX  90
$$


USA.gov is the U.S. government's official web portal to all federal, state and local government web resources and services.